JA0ZJX-13 Weather Reports


Display with metric or nautical units.
time (UTC)temp
F
wind
direction
speed
MPH
gust
MPH
rain 1hr
in
rain 24hr
in
rain mn
in
humidity
%
barometer
mb
20260504150333 48 309 12.0 16.0 0.00 0.62 0.00 69 1013.0
20260504140330 50 30 4.0 13.0 0.00 0.67 0.58 65 1012.5
20260504130331 52 10 6.0 12.0 0.00 0.70 0.58 61 1011.6
20260504110329 55 274 0.0 10.0 0.00 0.81 0.58 57 1008.1
20260504100332 55 246 11.0 25.0 0.00 0.85 0.58 55 1005.8
20260504081341 59 264 12.0 28.0 0.00 0.85 0.58 55 1004.8
20260504080331 60 246 10.0 24.0 0.00 0.85 0.58 56 1004.5
20260504070328 63 310 17.0 22.0 0.00 0.85 0.58 53 1003.7
20260504050330 68 264 12.0 22.0 0.00 0.85 0.58 51 1001.0
20260504045340 67 269 13.0 28.0 0.00 0.85 0.58 51 1000.8
20260504044328 67 269 15.0 24.0 0.00 0.85 0.58 51 1000.5
20260504043336 67 280 12.0 24.0 0.00 0.85 0.58 52 1000.5
20260504042328 68 268 8.0 19.0 0.00 0.85 0.58 50 1000.0
20260504041338 70 241 9.0 27.0 0.00 0.85 0.58 47 1000.3
20260504040328 71 265 6.0 13.0 0.00 0.85 0.58 45 1000.0
20260504035338 72 222 12.0 20.0 0.00 0.85 0.58 43 999.9
20260504034328 71 213 10.0 23.0 0.00 0.85 0.58 44 999.9
20260504033337 70 248 12.0 25.0 0.00 0.85 0.58 47 999.8
20260504032325 71 244 16.0 23.0 0.00 0.85 0.58 46 1000.2
20260504031338 71 188 9.0 23.0 0.00 0.85 0.58 46 1000.1
20260504030328 71 207 6.0 16.0 0.00 0.85 0.58 52 1000.2
20260504025337 70 159 11.0 21.0 0.00 0.85 0.58 54 1000.4
20260504024325 69 276 7.0 16.0 0.00 0.85 0.58 55 1000.2
20260504023339 69 192 12.0 17.0 0.00 0.85 0.58 54 1000.2
20260504022327 69 206 5.0 16.0 0.00 0.85 0.58 56 1000.5
20260504021335 69 213 12.0 19.0 0.00 0.85 0.58 54 1000.5
20260504020328 69 174 10.0 22.0 0.00 0.85 0.58 54 1000.8
20260504015337 70 214 10.0 21.0 0.00 0.85 0.58 55 1000.9
20260504014327 70 150 10.0 19.0 0.00 0.85 0.58 56 1001.0
20260504013336 69 165 8.0 21.0 0.00 0.85 0.58 57 1000.9
20260504012330 69 180 10.0 17.0 0.00 0.85 0.58 59 1001.1
20260504011339 69 217 9.0 19.0 0.00 0.85 0.58 58 1001.2
20260504010329 69 183 10.0 22.0 0.00 0.85 0.58 60 1001.1
20260504005336 69 210 12.0 25.0 0.00 0.85 0.58 61 1001.1
20260504004328 69 150 12.0 19.0 0.00 0.85 0.58 62 1001.3
20260504003337 68 233 11.0 22.0 0.00 0.85 0.58 63 1001.1
20260504002326 67 169 10.0 20.0 0.00 0.85 0.58 64 1001.1
20260504001335 67 214 10.0 21.0 0.00 0.85 0.58 64 1001.0
20260504000328 67 191 10.0 26.0 0.00 0.85 0.58 66 1001.2
20260503235337 67 187 9.0 26.0 0.00 0.85 0.58 67 1000.8
20260503234325 67 245 11.0 21.0 0.00 0.85 0.58 67 1000.8
20260503233340 66 213 10.0 21.0 0.00 0.85 0.58 70 1000.8
20260503232328 66 192 8.0 18.0 0.00 0.85 0.58 72 1000.9
20260503231337 66 149 9.0 15.0 0.00 0.85 0.58 72 1001.0
20260503230327 65 189 9.0 16.0 0.00 0.85 0.58 74 1000.8
20260503225340 65 225 7.0 16.0 0.00 0.85 0.58 75 1000.7
20260503224329 65 159 4.0 12.0 0.00 0.85 0.58 77 1000.6
20260503223339 65 171 6.0 14.0 0.00 0.85 0.58 77 1000.4
20260503222328 63 146 3.0 10.0 0.00 0.85 0.58 83 1000.3
20260503221341 61 198 3.0 8.0 0.00 0.85 0.58 88 1000.4
20260503220331 60 174 4.0 12.0 0.01 0.85 0.58 87 1000.2
20260503215339 60 114 6.0 9.0 0.01 0.85 0.58 87 1000.0
20260503214332 59 152 4.0 7.0 0.02 0.85 0.58 87 1000.3
20260503213342 59 257 3.0 6.0 0.02 0.85 0.58 88 1000.4
20260503212331 59 303 0.0 7.0 0.02 0.85 0.58 88 1000.5
20260503211341 60 286 4.0 9.0 0.03 0.85 0.58 88 1000.3
20260503210333 60 128 0.0 4.0 0.02 0.84 0.57 88 999.6
20260503205342 61 44 2.0 5.0 0.04 0.84 0.57 88 999.5
20260503204329 62 248 3.0 12.0 0.04 0.83 0.57 86 999.4
20260503203339 65 312 6.0 12.0 0.05 0.83 0.56 86 999.0
20260503202330 66 168 6.0 19.0 0.07 0.83 0.56 86 998.1
20260503201338 66 157 11.0 23.0 0.09 0.82 0.55 87 998.0
20260503200328 65 198 6.0 21.0 0.12 0.82 0.55 87 997.8
20260503195336 65 148 9.0 17.0 0.10 0.80 0.54 88 997.6
20260503194330 64 161 11.0 20.0 0.09 0.80 0.53 88 997.3
20260503193338 64 184 9.0 19.0 0.09 0.78 0.51 88 997.1
20260503192328 64 186 8.0 19.0 0.09 0.76 0.49 88 997.4
20260503191340 64 151 13.0 24.0 0.08 0.73 0.46 87 997.5
20260503190330 64 166 10.0 21.0 0.06 0.70 0.43 87 997.8
20260503185340 64 204 11.0 20.0 0.06 0.70 0.43 88 997.5
20260503184328 63 176 10.0 20.0 0.06 0.70 0.43 88 997.8
20260503183340 63 111 10.0 22.0 0.07 0.69 0.42 88 997.9
20260503182328 63 195 8.0 17.0 0.11 0.66 0.39 87 998.2
20260503181338 63 148 13.0 23.0 0.13 0.65 0.39 87 998.2
20260503180327 62 184 12.0 20.0 0.16 0.65 0.38 88 998.3
20260503175340 61 164 11.0 21.0 0.20 0.65 0.38 88 998.6
20260503174329 61 169 11.0 22.0 0.22 0.64 0.37 88 999.0
20260503173338 61 146 8.0 23.0 0.23 0.61 0.35 88 999.6
20260503172331 61 196 9.0 27.0 0.18 0.55 0.28 88 999.6
20260503171341 60 153 8.0 17.0 0.17 0.53 0.26 88 1000.0
20260503170331 60 186 12.0 16.0 0.15 0.49 0.22 88 1000.5